Flag for U.S.A. Weather past 2 weeks in Hollywood, Florida, U.S.A.

Now
78 °F

Broken clouds.


Feels Like: 81 °F
Forecast: 73 / 82 °F
Wind: 10 mph from East

Location: Fort Lauderdale / Hollywood International Airport


UV Index: 5 (Moderate)

Visibility: 10 mi


Pressure: 30.07 "Hg

Humidity: 87%

Dew point: 74 °F

Location of HollywoodLocation

Historic Weather in Hollywood

°F

Hollywood temperature yesterday

Maximum temperature yesterday: 81 °F (at 12:53 PM)
Minimum temperature yesterday: 72 °F (at 5:53 AM)
Average temperature yesterday: 77 °F

Past Weeks' High & Low Weather Summary

 TemperatureHumidityPressure
High91 °F (Apr 8, 2:53 PM)100% (Apr 8, 4:53 AM)30.25 "Hg (Apr 8, 4:53 AM)
Low68 °F (Apr 9, 6:53 AM)42% (Apr 9, 3:53 PM)29.76 "Hg (Apr 8, 4:53 PM)
Average77 °F74%30.03 "Hg
* Reported Apr 2 3:53 PM — Apr 17 3:53 PM, Hollywood, Weather by CustomWeather, © 2014

Note: Actual official high and low records may vary slightly from our data, if they occured in-between our weather recording intervals... More about our weather records

Advertising

Historic Weather Conditions — Data for Previous 24 hours

 ConditionsComfort  
Time TempWeatherWind HumidityBarometerVisibility
3:53 PM
Apr 17
78 °FCloudy.9 mph87%30.07 "Hg10 mi
2:53 PM78 °FBroken clouds.10 mph87%30.10 "Hg10 mi
1:53 PM77 °FBroken clouds.6 mph88%30.11 "Hg10 mi
12:53 PM75 °FPartly sunny.9 mph100%30.12 "Hg9 mi
12:04 PM74 °FStrong thunderstorms. Fog.14 mph97%30.14 "Hg3 mi
11:53 AM76 °FThunderstorms. Fog.18 mph91%30.14 "Hg1 mi
10:53 AM81 °FPartly sunny.17 mph77%30.13 "Hg10 mi
9:53 AM80 °FPartly sunny.14 mph79%30.11 "Hg10 mi
8:53 AM79 °FBroken clouds.13 mph82%30.09 "Hg10 mi
7:53 AM78 °FPassing clouds.10 mph82%30.08 "Hg10 mi
6:53 AM77 °FPassing clouds.9 mph85%30.06 "Hg10 mi
5:53 AM77 °FPassing clouds.13 mph85%30.05 "Hg10 mi
4:53 AM77 °FPassing clouds.13 mph85%30.03 "Hg10 mi
3:53 AM77 °FPassing clouds.13 mph85%30.03 "Hg10 mi
2:53 AM77 °FPartly cloudy.10 mph85%30.04 "Hg10 mi
1:53 AM76 °FPartly cloudy.14 mph94%30.05 "Hg10 mi
12:53 AM75 °FLight rain. Passing clouds.10 mph96%30.06 "Hg8 mi
12:00 AM74 °FRain. Fog.14 mph100%30.07 "Hg3 mi
10:53 PM
Apr 16
76 °FMostly cloudy.7 mph91%30.06 "Hg10 mi
9:53 PM77 °FOvercast.9 mph85%30.06 "Hg10 mi
8:55 PM77 °FMostly cloudy.10 mph77%30.04 "Hg10 mi
7:53 PM76 °FMostly cloudy.8 mph80%30.02 "Hg10 mi
6:53 PM78 °FMostly cloudy.14 mph74%30.00 "Hg10 mi
5:53 PM78 °FCloudy.13 mph71%30.00 "Hg10 mi
Weather by CustomWeather, © 2014

See weather overview